Date,TemperatureHighF,TemperatureAvgF,TemperatureLowF,DewpointHighF,DewpointAvgF,DewpointLowF,HumidityHigh,HumidityAvg,HumidityLow,PressureMaxIn,PressureMinIn,WindSpeedMaxMPH,WindSpeedAvgMPH,GustSpeedMaxMPH,PrecipitationSumIn
2013-1-1,23.5,11.4,-10.0,20.6,8.1,-14.6,90,87,79,30.36,30.00,21,8,21,0.00
2013-1-2,29.2,21.0,5.0,25.6,17.0,1.0,89,85,77,30.39,29.97,26,12,26,0.00
2013-1-3,24.7,18.3,7.4,18.6,13.1,3.3,88,80,68,30.39,30.07,30,13,30,0.00
2013-1-4,23.2,20.8,18.7,14.6,13.3,12.1,76,73,69,30.13,30.10,21,13,21,0.00
2013-1-6,28.4,17.9,12.5,21.8,14.3,9.1,90,85,77,30.02,29.84,22,9,22,0.00
2013-1-7,32.2,25.1,7.4,24.7,18.9,3.7,88,77,72,29.97,29.83,26,12,26,0.00
2013-1-8,35.2,25.5,6.3,30.4,20.9,2.6,90,83,72,29.95,29.72,35,12,35,0.00
2013-1-9,30.5,24.4,20.0,24.4,19.1,14.5,89,80,72,30.24,29.95,32,10,32,0.00
2013-1-10,39.7,34.6,21.5,31.9,28.9,18.3,98,80,69,30.01,29.52,37,15,37,0.00
2013-1-11,33.3,17.6,3.5,31.5,15.1,0.0,96,90,85,29.74,29.48,30,14,30,0.00
2013-1-12,3.6,0.5,-2.7,0.1,-3.4,-6.8,85,83,82,30.35,29.74,31,16,31,0.00
2013-1-13,5.9,0.0,-7.9,2.1,-4.0,-12.5,92,83,80,30.41,30.30,22,6,22,0.00
2013-1-14,9.0,-1.9,-8.5,5.1,-6.1,-13.0,92,82,79,30.46,30.30,18,7,18,0.00
2013-1-15,35.9,17.7,-0.1,34.1,14.2,-4.7,93,86,82,30.31,29.69,30,13,30,0.00
2013-1-16,36.0,18.5,-1.0,33.8,15.3,-5.5,92,87,79,30.35,29.70,26,8,26,0.00
2013-1-17,19.7,13.4,5.8,17.2,9.9,2.4,92,86,81,30.53,30.11,22,6,22,0.00
2013-1-18,35.3,28.5,15.3,30.4,24.8,12.4,99,86,81,30.12,29.76,21,8,21,0.00
2013-1-19,34.6,13.6,-4.1,30.7,8.9,-9.2,88,81,78,30.47,29.75,41,20,41,0.01
2013-1-20,1.8,-3.7,-12.1,-2.0,-9.4,-18.6,89,76,69,30.60,30.44,33,15,33,0.00
2013-1-21,0.4,-7.5,-14.3,-7.4,-14.0,-20.5,83,72,68,30.57,30.47,29,13,29,0.00
2013-1-22,8.8,1.3,-11.5,4.2,-3.9,-17.0,89,78,68,30.50,30.28,13,2,13,0.00
2013-1-23,8.0,-2.9,-11.5,4.2,-8.4,-18.1,91,76,70,30.78,30.30,23,9,23,0.00
2013-1-24,19.7,-0.6,-10.9,15.1,-6.4,-17.2,85,76,72,30.77,30.13,30,14,30,0.00
2013-1-25,19.6,1.8,-3.8,15.0,-4.7,-9.8,82,74,68,30.41,30.13,34,12,34,0.00
2013-1-26,24.4,10.3,-3.3,18.9,5.4,-8.7,85,80,76,30.38,30.08,22,8,22,0.00
2013-1-27,22.0,13.1,4.6,18.1,9.6,1.0,90,86,82,30.08,29.88,7,1,7,0.00
2013-1-28,28.7,22.9,14.0,26.1,20.2,10.9,91,89,86,29.93,29.82,17,3,17,0.00
2013-1-29,24.1,18.3,13.2,21.5,15.2,10.1,91,87,83,30.09,29.78,28,9,28,0.00
2013-1-30,14.1,-3.0,-13.8,10.2,-8.1,-19.7,85,78,74,30.16,30.02,29,18,29,0.00
2013-1-31,-9.4,-14.1,-17.5,-16.3,-20.5,-23.8,83,72,69,30.52,30.16,29,16,29,0.00